BAW406 EGLL-LLBG

Flight info

Callsign BAW406
Flight time N/A
Altitude 35000
Route DET L6 DVR UL9 KONAN DCT KOK DCT BITBU DCT BABEG DCT KONIN DCT ERKIR DCT DEGUM DCT ELTIB DCT VRANA/N0443F370 DCT POD DCT RINAV DCT BONZI DCT BITLA DCT AKINA DCT VANZA DCT PIKOG L609 ZUKKO
Aircraft A320/M-SDE3FGHIRWY/LB1

Departure

Time 2026-05-06 15:38
Airport London Heathrow Airport (EGLL)

Arrival

Time N/A
Airport Ben Gurion International Airport (LLBG)
Time Latitude Longitude Altitude Speed Heading
2026-05-06 15:21 51.47186 -0.48588 90 ft 0 kts 269°
2026-05-06 15:31 51.47187 -0.48553 88 ft 4 kts 263°
2026-05-06 15:31 51.47192 -0.48511 89 ft 4 kts 248°
2026-05-06 15:31 51.47206 -0.48479 91 ft 4 kts 201°
2026-05-06 15:32 51.47214 -0.48475 91 ft 0 kts 181°
2026-05-06 15:34 51.47209 -0.48475 91 ft 5 kts 181°
2026-05-06 15:34 51.47130 -0.48475 88 ft 14 kts 179°
2026-05-06 15:35 51.47027 -0.48472 88 ft 15 kts 179°
2026-05-06 15:35 51.46919 -0.48468 90 ft 15 kts 179°
2026-05-06 15:35 51.46898 -0.48468 91 ft 2 kts 179°
2026-05-06 15:35 51.46822 -0.48467 92 ft 18 kts 180°
2026-05-06 15:36 51.46693 -0.48470 93 ft 19 kts 179°
2026-05-06 15:36 51.46607 -0.48468 96 ft 9 kts 179°
2026-05-06 15:36 51.46600 -0.48467 96 ft 0 kts 178°
2026-05-06 15:37 51.46565 -0.48466 96 ft 16 kts 178°
2026-05-06 15:37 51.46476 -0.48387 94 ft 15 kts 86°
2026-05-06 15:37 51.46478 -0.48339 94 ft 0 kts 89°
2026-05-06 15:37 51.46478 -0.48247 94 ft 33 kts 89°
2026-05-06 15:38 51.46488 -0.47474 87 ft 100 kts 89°
2026-05-06 15:38 51.46490 -0.46106 89 ft 144 kts 89°
2026-05-06 15:38 51.46497 -0.44345 358 ft 160 kts 90°
2026-05-06 15:38 51.46471 -0.42546 909 ft 165 kts 90°
2026-05-06 15:39 51.46229 -0.40700 1471 ft 176 kts 111°
2026-05-06 15:39 51.45661 -0.38928 2026 ft 182 kts 123°
2026-05-06 15:39 51.44873 -0.37290 2560 ft 188 kts 124°
2026-05-06 15:39 51.44112 -0.35503 2837 ft 203 kts 116°
2026-05-06 15:40 51.43550 -0.33384 3236 ft 208 kts 103°
2026-05-06 15:40 51.43190 -0.31122 3696 ft 210 kts 100°
2026-05-06 15:40 51.42843 -0.28801 4044 ft 222 kts 99°
2026-05-06 15:40 51.42489 -0.26308 4343 ft 240 kts 99°
2026-05-06 15:41 51.42127 -0.23665 4920 ft 248 kts 100°
2026-05-06 15:41 51.41746 -0.20851 5347 ft 265 kts 99°
2026-05-06 15:41 51.41355 -0.17968 6056 ft 272 kts 99°
2026-05-06 15:41 51.40948 -0.14986 6800 ft 276 kts 99°
2026-05-06 15:42 51.40533 -0.11961 7492 ft 281 kts 100°
2026-05-06 15:42 51.40108 -0.08879 8244 ft 285 kts 101°
2026-05-06 15:42 51.39677 -0.05747 8948 ft 290 kts 101°
2026-05-06 15:42 51.39236 -0.02565 9634 ft 296 kts 101°
2026-05-06 15:43 51.38784 0.00676 10202 ft 306 kts 101°
2026-05-06 15:43 51.38303 0.04117 10358 ft 328 kts 101°
2026-05-06 15:43 51.37785 0.07811 10486 ft 350 kts 101°
2026-05-06 15:43 51.37239 0.11703 10745 ft 365 kts 101°
2026-05-06 15:44 51.36676 0.15704 11274 ft 370 kts 102°
2026-05-06 15:44 51.36110 0.19730 11880 ft 372 kts 102°
2026-05-06 15:44 51.35538 0.23799 12438 ft 377 kts 102°
2026-05-06 15:44 51.34958 0.27910 13007 ft 381 kts 102°
2026-05-06 15:45 51.34380 0.32007 13621 ft 384 kts 102°
2026-05-06 15:45 51.33788 0.36189 14151 ft 387 kts 102°
2026-05-06 15:45 51.33187 0.40407 14647 ft 391 kts 102°
2026-05-06 15:45 51.32576 0.44654 15194 ft 393 kts 102°
2026-05-06 15:46 51.31961 0.48920 15732 ft 394 kts 103°
2026-05-06 15:46 51.31338 0.53211 16210 ft 398 kts 103°
2026-05-06 15:46 51.30712 0.57534 16704 ft 401 kts 103°
2026-05-06 15:46 51.30061 0.61877 17232 ft 402 kts 104°
2026-05-06 15:47 51.29328 0.66206 17730 ft 406 kts 106°
2026-05-06 15:47 51.28530 0.70549 18210 ft 409 kts 107°
2026-05-06 15:47 51.27696 0.74911 18662 ft 412 kts 107°
2026-05-06 15:47 51.26856 0.79286 19130 ft 414 kts 107°
2026-05-06 15:48 51.26028 0.83642 19560 ft 417 kts 107°
2026-05-06 15:48 51.25194 0.88087 19989 ft 420 kts 107°
2026-05-06 15:48 51.24362 0.92570 20442 ft 422 kts 107°
2026-05-06 15:48 51.23530 0.97072 20860 ft 424 kts 107°
2026-05-06 15:49 51.22695 1.01599 21269 ft 427 kts 107°
2026-05-06 15:49 51.21854 1.06153 21676 ft 429 kts 107°
2026-05-06 15:49 51.21008 1.10721 22077 ft 431 kts 107°
2026-05-06 15:49 51.20149 1.15316 22464 ft 434 kts 107°
2026-05-06 15:50 51.19280 1.19941 22845 ft 436 kts 107°
2026-05-06 15:50 51.18404 1.24578 23223 ft 438 kts 108°
2026-05-06 15:50 51.17520 1.29249 23583 ft 441 kts 108°
2026-05-06 15:50 51.16655 1.33947 23876 ft 443 kts 104°
2026-05-06 15:51 51.16131 1.38793 24189 ft 446 kts 96°
2026-05-06 15:51 51.15900 1.43742 24487 ft 448 kts 95°
2026-05-06 15:51 51.15668 1.48700 24783 ft 450 kts 95°
2026-05-06 15:51 51.15428 1.53676 25091 ft 451 kts 95°
2026-05-06 15:52 51.15183 1.58664 25391 ft 452 kts 95°
2026-05-06 15:52 51.14936 1.63628 25006 ft 447 kts 95°
2026-05-06 15:52 51.14691 1.68550 24387 ft 444 kts 95°
2026-05-06 15:52 51.14448 1.73431 23787 ft 441 kts 95°
2026-05-06 15:53 51.14203 1.78290 23141 ft 438 kts 95°
2026-05-06 15:53 51.13958 1.83100 22502 ft 434 kts 95°
2026-05-06 15:53 51.13711 1.87870 21896 ft 430 kts 95°
2026-05-06 15:53 51.13459 1.92598 21254 ft 427 kts 96°
2026-05-06 15:54 51.12840 1.97129 20987 ft 425 kts 111°